Lid_Strength_Index
4 4 4 5 6 6 8 13 20 10 10 19 16 23 22 13 15 12 12 13 14 19 17 20 18 18 16 13 15 18 15 17 21 19 14 12 13 16 18 21 19 17 18 18
4 4 4 5 6 7 11 15 17 11 13 24 26 19 16 15 15 14 14 14 13 18 21 21 20 17 14 13 15 17 15 19 23 21 16 14 17 17 18 18 18 18 20 19
4 4 5 5 6 7 11 16 21 18 16 18 19 21 21 20 14 14 12 13 13 17 22 18 20 17 15 14 15 13 14 17 19 22 20 17 20 19 19 20 23 21 20 20
4 4 5 5 6 7 11 17 21 22 25 22 18 17 17 18 19 14 13 15 18 19 22 20 24 17 16 15 14 15 15 19 18 17 16 17 19 20 20 22 22 22 21 22
4 4 5 5 6 7 13 17 19 21 24 18 17 16 18 17 16 16 17 20 17 20 22 20 20 18 17 18 16 17 15 20 17 19 15 17 20 20 19 21 22 21 20 21
4 4 5 5 6 7 14 15 16 16 18 18 20 18 17 17 16 15 14 15 16 20 19 16 15 15 16 16 18 17 17 18 19 21 17 17 23 22 21 22 22 22 25 21
4 4 5 5 5 8 12 13 14 18 25 21 17 16 16 16 16 16 15 14 19 15 13 14 15 16 16 16 16 15 18 18 19 22 20 26 19 18 19 20 22 22 22 22
4 4 5 5 5 6 11 13 14 18 25 20 16 16 16 16 16 16 15 14 13 13 15 20 23 24 22 22 17 16 14 17 21 21 21 18 19 19 21 22 23 21 23 22
4 4 5 5 5 7 11 12 12 15 20 21 16 18 16 20 21 19 15 13 12 13 17 24 28 25 27 22 21 15 15 16 20 23 25 26 20 19 17 17 22 20 21 22
4 5 5 5 6 7 11 13 13 14 20 18 19 20 18 17 19 20 16 15 15 14 23 26 24 27 26 24 23 21 20 22 25 25 22 20 19 18 17 25 24 20 20 21
4 5 5 5 6 7 11 14 13 14 17 16 17 16 18 17 18 22 17 17 17 19 23 21 21 24 24 24 22 19 20 23 24 26 24 24 18 19 24 21 19 20 20 21
5 5 5 5 6 7 10 14 13 13 17 18 15 14 13 13 14 16 15 15 16 14 23 22 20 25 25 24 24 17 21 19 21 21 21 18 18 20 19 19 20 20 19 19
5 5 5 6 6 7 10 14 14 14 17 16 16 17 14 13 13 11 16 14 14 14 14 16 18 21 19 24 23 20 17 17 18 18 17 20 20 18 18 18 19 19 19 19
5 5 5 6 6 8 10 14 14 15 17 22 18 14 15 13 12 12 11 12 11 12 13 16 18 19 16 19 18 18 18 17 18 17 17 19 19 19 19 19 19 20 20 20
5 5 5 6 7 9 12 14 14 16 17 23 19 17 15 14 13 12 12 12 12 13 15 17 18 16 17 17 17 18 17 17 17 19 17 18 19 19 18 20 20 20 20 21
5 5 6 7 8 9 13 17 15 15 16 21 25 18 17 15 14 13 13 13 13 13 15 16 15 14 17 18 18 17 17 16 16 17 17 18 19 19 19 20 21 20 21 21
5 5 6 7 8 13 16 17 15 13 15 21 26 21 17 17 16 15 14 14 15 15 15 17 16 16 17 17 21 17 17 18 19 18 17 19 18 20 21 22 23 24 25 25
5 6 7 8 9 12 16 16 13 14 18 21 27 28 21 17 18 18 15 17 16 18 18 17 18 19 21 20 18 17 18 18 20 20 20 19 20 20 21 21 22 24 24 25
7 8 9 11 14 16 18 12 14 16 18 25 28 26 27 18 17 17 18 16 20 23 22 25 26 30 25 19 17 17 18 19 19 21 22 22 22 23 24 25 25 25 26 27
7 10 14 17 16 12 13 17 21 21 23 25 26 28 27 19 19 19 23 21 21 29 26 29 32 26 22 20 21 18 17 19 20 23 25 26 27 25 26 26 28 27 27 29
13 16 19 16 13 16 18 23 25 27 26 27 27 26 24 20 25 26 24 29 32 30 27 28 34 26 21 24 23 23 19 19 21 25 25 23 22 24 27 30 28 27 28 28
13 16 15 16 17 19 22 28 29 28 24 28 25 26 25 26 24 27 29 30 31 29 34 31 30 22 25 25 28 28 25 22 25 27 23 24 23 25 25 27 28 29 30 31
13 15 18 18 20 26 25 26 26 28 27 27 28 27 26 28 25 30 30 30 29 33 32 28 24 25 29 28 29 33 34 29 28 31 31 27 28 28 27 30 34 31 31 33
14 17 21 19 23 24 23 22 22 24 25 24 27 27 27 30 28 30 28 31 31 32 30 25 23 23 25 28 33 29 30 29 27 28 29 29 28 31 33 30 30 30 31 33
15 15 18 21 23 28 28 28 26 27 21 24 26 27 24 32 30 30 32 31 31 27 24 23 22 30 25 28 30 29 29 29 29 31 29 30 31 30 34 35 32 31 31 32
17 18 21 24 24 28 28 27 28 28 22 26 25 28 28 29 29 30 28 27 26 22 23 24 31 28 26 28 28 28 28 28 29 29 29 30 30 30 31 36 33 32 31 32
18 21 21 22 23 23 24 26 25 26 25 26 27 26 24 28 31 29 28 25 22 23 27 31 30 27 27 28 29 30 29 29 30 31 31 31 34 32 31 32 35 33 35 33